Location: Big Prairie
(40.6673°N, 82.0952°W)
Time: 19:02:43
(UTC+00:00)

COSMOS 2455 - Pass Details

Date: 03 December 2021
Orbit: 898 x 911 km, 67.1° (Epoch: 17 January)

Event Time Altitude Azimuth Distance (km) Brightness Sun altitude
Rises 22:38:34 0° 191° (S) 3,508 6.4 -7.2°
Reaches altitude 10° 22:41:07 10° 186° (S) 2,573 5.6 -7.6°
Maximum altitude 22:46:52 51° 112° (ESE) 1,128 3.1 -8.6°
Drops below altitude 10° 22:52:40 10° 39° (NE) 2,598 4.7 -9.7°
Enters shadow 22:53:24 - 37° (NE) 2,864 4.9 -9.8°
